Location: Heidgraben
(53.7081°N, 9.6576°E)
Time: 01:32:08
(UTC+00:00)

Nadezhda 3 Rocket - Visible Passes

Search period start: 24 October 2020 00:00
Search period end: 03 November 2020 00:00
Orbit: 957 x 999 km, 82.9° (Epoch: 23 October)

Date Brightness Start Highest point End Pass type
(mag) Time Alt. Az. Time Alt. Az. Time Alt. Az.
24 Oct 6.5 01:10:00 10° NNW 01:10:00 10° NNW 01:10:02 10° NNW visible
24 Oct 6.6 22:06:39 12° NNE 22:06:39 12° NNE 22:07:04 10° NNE visible
24 Oct 6.5 23:51:23 14° N 23:51:23 14° N 23:52:20 10° N visible
25 Oct 6.6 22:32:46 13° N 22:32:46 13° N 22:33:22 10° N visible
26 Oct 6.6 00:17:29 12° NNW 00:17:29 12° NNW 00:18:08 10° N visible
26 Oct 6.6 22:58:51 13° N 22:58:51 13° N 22:59:34 10° N visible
27 Oct 6.7 21:40:14 10° NNE 21:40:14 10° NNE 21:40:16 10° NNE visible
27 Oct 6.6 23:24:57 13° N 23:24:57 13° N 23:25:36 10° N visible
28 Oct 6.7 22:06:20 11° N 22:06:20 11° N 22:06:36 10° N visible
28 Oct 6.7 23:51:03 11° N 23:51:03 11° N 23:51:28 10° N visible
29 Oct 6.7 22:32:26 12° N 22:32:26 12° N 22:32:48 10° N visible
30 Oct 6.7 05:41:30 10° NE 05:42:23 10° NE 05:43:15 10° NE visible
30 Oct 6.7 22:58:30 12° N 22:58:30 12° N 22:58:52 10° N visible
31 Oct 6.8 23:24:36 11° N 23:24:36 11° N 23:24:47 10° N visible
01 Nov 6.7 22:05:58 10° N 22:05:58 10° N 22:06:03 10° N visible
02 Nov 6.8 22:32:02 10° N 22:32:02 10° N 22:32:08 10° N visible
